• In Uzbekistan
  • List of Countries
  • For 7 days
  • Water Temperature
  • Satellite Maps
  • Weather Map
  • Weather Widgets
  • user-avatar
    Login

    Hourly Weather Igls

    Today, 27 March, Monday

    Time Temperature Precipitation Wind Pressure Humidity
    00:00 +2°C° 0 mm 1 mps 687 mmHg 95%
    01:00 +2°C° 0 mm 1 mps 687 mmHg 94%
    02:00 +2°C° 0 mm 1 mps 687 mmHg 94%
    03:00 +2°C° 0 mm 1 mps 687 mmHg 94%
    04:00 +2°C° 0 mm 1 mps 687 mmHg 93%
    05:00 +2°C° 0 mm 1 mps 687 mmHg 92%
    06:00 +2°C° 0 mm 2 mps 687 mmHg 90%
    07:00 +3°C° 0 mm 2 mps 687 mmHg 88%
    08:00 +6°C° 0 mm 1 mps 687 mmHg 82%
    09:00 +9°C° 0 mm 1 mps 688 mmHg 75%
    10:00 +12°C° 0 mm 1 mps 688 mmHg 69%
    11:00 +13°C° 0 mm 1 mps 688 mmHg 66%
    12:00 +13°C° 0 mm 1 mps 688 mmHg 64%
    13:00 +14°C° 0 mm 1 mps 688 mmHg 61%
    14:00 +14°C° 0 mm 1 mps 688 mmHg 63%
    15:00 +14°C° 0 mm 1 mps 687 mmHg 66%
    16:00 +14°C° 0 mm 1 mps 687 mmHg 68%
    17:00 +10°C° 0 mm 1 mps 687 mmHg 77%
    18:00 +6°C° 0 mm 1 mps 686 mmHg 85%
    19:00 +2°C° 0 mm 0 mps 685 mmHg 94%
    20:00 +2°C° 0 mm 0 mps 686 mmHg 94%
    21:00 +3°C° 0 mm 1 mps 686 mmHg 94%
    22:00 +3°C° 0 mm 1 mps 686 mmHg 94%
    23:00 +3°C° 0 mm 1 mps 686 mmHg 93%

    Tomorrow, 28 March, Tuesday

    Time Temperature Precipitation Wind Pressure Humidity
    00:00 +3°C° 0 mm 1 mps 687 mmHg 92%
    01:00 +3°C° 0 mm 1 mps 687 mmHg 92%
    02:00 +3°C° 0 mm 1 mps 687 mmHg 91%
    03:00 +3°C° 0 mm 1 mps 686 mmHg 91%
    04:00 +3°C° 0 mm 1 mps 686 mmHg 91%
    05:00 +3°C° 0 mm 1 mps 687 mmHg 89%
    06:00 +4°C° 0 mm 1 mps 687 mmHg 88%
    07:00 +5°C° 0 mm 1 mps 687 mmHg 86%
    08:00 +8°C° 0 mm 1 mps 688 mmHg 80%
    09:00 +10°C° 0 mm 1 mps 688 mmHg 74%
    10:00 +13°C° 0 mm 1 mps 689 mmHg 68%
    11:00 +14°C° 0 mm 1 mps 689 mmHg 67%
    12:00 +14°C° 0 mm 1 mps 689 mmHg 65%
    13:00 +15°C° 0 mm 1 mps 689 mmHg 64%
    14:00 +14°C° 0 mm 1 mps 689 mmHg 67%
    15:00 +14°C° 0 mm 1 mps 688 mmHg 71%
    16:00 +13°C° 0 mm 1 mps 688 mmHg 75%
    17:00 +11°C° 0 mm 1 mps 688 mmHg 81%
    18:00 +10°C° 0 mm 1 mps 688 mmHg 88%
    19:00 +8°C° 0 mm 1 mps 688 mmHg 94%
    20:00 +7°C° 0 mm 1 mps 688 mmHg 95%
    21:00 +7°C° 0 mm 1 mps 688 mmHg 95%
    22:00 +6°C° 0 mm 1 mps 689 mmHg 96%
    23:00 +6°C° 0 mm 1 mps 689 mmHg 96%

    Day after tomorrow, 29 March, Wednesday

    Time Temperature Precipitation Wind Pressure Humidity
    00:00 +6°C° 0 mm 1 mps 689 mmHg 96%
    01:00 +7°C° 0 mm 1 mps 689 mmHg 96%
    02:00 +6°C° 0 mm 1 mps 689 mmHg 96%
    03:00 +6°C° 0 mm 1 mps 689 mmHg 96%
    04:00 +6°C° 0 mm 1 mps 689 mmHg 95%
    05:00 +6°C° 0 mm 1 mps 690 mmHg 94%
    06:00 +7°C° 0 mm 1 mps 690 mmHg 93%
    07:00 +7°C° 0 mm 1 mps 690 mmHg 92%
    08:00 +9°C° 0 mm 1 mps 690 mmHg 86%
    09:00 +11°C° 0 mm 1 mps 691 mmHg 80%
    10:00 +12°C° 0 mm 1 mps 691 mmHg 75%
    11:00 +13°C° 0 mm 1 mps 691 mmHg 72%
    12:00 +14°C° 0 mm 1 mps 691 mmHg 69%
    13:00 +15°C° 0 mm 1 mps 690 mmHg 66%
    14:00 +15°C° 0 mm 1 mps 690 mmHg 68%
    15:00 +15°C° 0 mm 1 mps 690 mmHg 69%
    16:00 +14°C° 0 mm 1 mps 690 mmHg 71%
    17:00 +12°C° 0 mm 1 mps 689 mmHg 79%
    18:00 +10°C° 0 mm 1 mps 689 mmHg 87%
    19:00 +9°C° 0 mm 1 mps 689 mmHg 95%
    20:00 +8°C° 0 mm 1 mps 690 mmHg 95%
    21:00 +8°C° 0 mm 1 mps 690 mmHg 96%
    22:00 +8°C° 0 mm 1 mps 691 mmHg 96%
    23:00 +8°C° 0 mm 1 mps 691 mmHg 96%

    30 March, Thursday

    Time Temperature Precipitation Wind Pressure Humidity
    00:00 +7°C° 0 mm 1 mps 690 mmHg 96%
    01:00 +7°C° 0 mm 1 mps 690 mmHg 96%
    02:00 +6°C° 0 mm 1 mps 690 mmHg 96%
    03:00 +5°C° 0 mm 1 mps 690 mmHg 95%
    04:00 +5°C° 0 mm 1 mps 690 mmHg 94%
    05:00 +5°C° 0 mm 1 mps 690 mmHg 91%
    06:00 +6°C° 0 mm 1 mps 690 mmHg 88%
    07:00 +6°C° 0 mm 0 mps 690 mmHg 85%
    08:00 +9°C° 0 mm 0 mps 691 mmHg 77%
    09:00 +11°C° 0 mm 0 mps 691 mmHg 69%
    10:00 +15°C° 0 mm 1 mps 691 mmHg 61%
    11:00 +16°C° 0 mm 1 mps 691 mmHg 58%
    12:00 +18°C° 0 mm 1 mps 691 mmHg 56%
    13:00 +18°C° 0 mm 1 mps 691 mmHg 53%
    14:00 +18°C° 0 mm 1 mps 691 mmHg 55%
    15:00 +18°C° 0 mm 1 mps 690 mmHg 58%
    16:00 +18°C° 0 mm 1 mps 690 mmHg 60%
    17:00 +14°C° 0 mm 1 mps 689 mmHg 70%
    18:00 +11°C° 0 mm 1 mps 689 mmHg 80%
    19:00 +8°C° 0 mm 1 mps 688 mmHg 90%
    20:00 +8°C° 0 mm 1 mps 689 mmHg 90%
    21:00 +8°C° 0 mm 1 mps 689 mmHg 90%
    22:00 +8°C° 0 mm 1 mps 689 mmHg 89%
    23:00 +7°C° 0 mm 2 mps 689 mmHg 89%

    31 March, Friday

    Time Temperature Precipitation Wind Pressure Humidity
    00:00 +7°C° 0 mm 2 mps 689 mmHg 89%
    01:00 +6°C° 0 mm 2 mps 689 mmHg 89%
    02:00 +6°C° 0 mm 2 mps 689 mmHg 90%
    03:00 +6°C° 0 mm 2 mps 688 mmHg 90%
    04:00 +6°C° 0 mm 2 mps 688 mmHg 91%
    05:00 +6°C° 0 mm 2 mps 688 mmHg 89%
    06:00 +7°C° 0 mm 2 mps 688 mmHg 88%
    07:00 +7°C° 0 mm 2 mps 688 mmHg 86%
    08:00 +9°C° 0 mm 2 mps 688 mmHg 76%
    09:00 +13°C° 0 mm 2 mps 688 mmHg 66%
    10:00 +16°C° 0 mm 1 mps 688 mmHg 56%
    11:00 +18°C° 0 mm 1 mps 688 mmHg 53%
    12:00 +17°C° 0 mm 2 mps 688 mmHg 49%
    13:00 +18°C° 0 mm 2 mps 687 mmHg 46%
    14:00 +18°C° 0 mm 2 mps 687 mmHg 49%
    15:00 +18°C° 0 mm 2 mps 686 mmHg 52%
    16:00 +17°C° 0 mm 2 mps 686 mmHg 55%
    17:00 +14°C° 0 mm 2 mps 685 mmHg 67%
    18:00 +12°C° 0 mm 2 mps 685 mmHg 79%
    19:00 +8°C° 0 mm 2 mps 684 mmHg 91%
    20:00 +8°C° 0 mm 2 mps 684 mmHg 91%
    21:00 +8°C° 0 mm 2 mps 684 mmHg 91%
    22:00 +8°C° 0 mm 2 mps 684 mmHg 91%
    23:00 +7°C° 0 mm 2 mps 684 mmHg 91%

    1 April, Saturday

    Time Temperature Precipitation Wind Pressure Humidity
    00:00 +7°C° 0 mm 2 mps 684 mmHg 91%
    01:00 +7°C° 0 mm 2 mps 684 mmHg 92%
    02:00 +6°C° 0 mm 2 mps 683 mmHg 92%
    03:00 +6°C° 0 mm 2 mps 683 mmHg 92%
    04:00 +6°C° 0 mm 2 mps 683 mmHg 92%
    05:00 +6°C° 0 mm 2 mps 683 mmHg 90%
    06:00 +6°C° 0 mm 2 mps 683 mmHg 88%
    07:00 +8°C° 0 mm 1 mps 683 mmHg 86%
    08:00 +9°C° 0 mm 1 mps 683 mmHg 80%
    09:00 +10°C° 0 mm 2 mps 683 mmHg 73%
    10:00 +13°C° 0 mm 2 mps 683 mmHg 66%
    11:00 +13°C° 0.1 mm 2 mps 683 mmHg 64%
    12:00 +14°C° 0.1 mm 2 mps 683 mmHg 63%
    13:00 +14°C° 0.1 mm 2 mps 682 mmHg 61%
    14:00 +14°C° 0.6 mm 2 mps 682 mmHg 66%
    15:00 +13°C° 0.6 mm 2 mps 682 mmHg 70%
    16:00 +13°C° 0.6 mm 2 mps 681 mmHg 74%
    17:00 +10°C° 0.8 mm 2 mps 681 mmHg 80%
    18:00 +10°C° 0.8 mm 1 mps 681 mmHg 87%
    19:00 +8°C° 0.8 mm 1 mps 681 mmHg 93%
    20:00 +8°C° 0.6 mm 1 mps 681 mmHg 94%
    21:00 +8°C° 0.6 mm 1 mps 681 mmHg 95%
    22:00 +7°C° 0.6 mm 1 mps 681 mmHg 95%
    23:00 +7°C° 0.2 mm 1 mps 681 mmHg 95%
    Show more